Tracking 22440 objects as of 26-Feb-2021
HD Live streaming from Space Station
objects crossing your sky now

BREEZE-M DEB

Track BREEZE-M DEB now!
10-day predictions


NORAD ID: 36594
Int'l Code: 2010-025C
Perigee: 283.7 km
Apogee: 15,987.5 km
Inclination: 49.5 °
Period: 289.8 minutes
Semi major axis: 14506 km
RCS: 5.977 m2 (large)
Launch date: June 3, 2010
Source: Commonwealth of Independent States (former USSR) (CIS)
Launch site: TYURATAM MISSILE AND SPACE COMPLEX (TTMTR)

Note: This is SATELLITE DEBRIS
aabbcc
Your satellite tracking list
Your tracking list is empty




NASA's NSSDC Master Catalog

Two Line Element Set (TLE):
1 36594U 10025C   21056.09595617  .00001000  00000-0  15186-3 0  9996
2 36594  49.5240 325.6179 5412623 210.1451 102.9682  4.96883199191571
Source of the keplerian elements: AFSPC